Location: Newark
(31.5350°N, 35.0986°E)
Time: 12:54:31
(UTC+00:00)

Vanguard 1 - Pass Details

Date: 28 September 2019
Orbit: 653 x 3830 km, 34.2° (Epoch: 17 October)

Event Time Altitude Azimuth Distance (km) Brightness Sun altitude
Rises 17:45:47 0° 187° (S) 5,492 13.8 -29.6°
Reaches altitude 10° 17:50:12 10° 173° (S) 4,981 13.4 -30.5°
Enters shadow 17:52:50 15° 163° (SSE) 4,812 13.2 -31.0°
Maximum altitude 18:01:09 23° 127° (SE) 4,960 - -32.7°
Drops below altitude 10° 18:15:36 10° 85° (E) 6,781 - -35.6°
Sets 18:23:05 0° 74° (ENE) 7,965 - -37.0°
